Location: Tamazert
(32.6352°N, 5.2072°W)
Time: 17:05:13
(UTC+00:00)

Transit 2A Rocket - Pass Details

Date: 03 October 2022
Orbit: 589 x 912 km, 66.7° (Epoch: 07 December)

Event Time Altitude Azimuth Distance (km) Brightness Sun altitude
Rises 15:49:10 0° 325° (NW) 3,087 8.3 26.4°
Reaches altitude 10° 15:51:32 10° 318° (NW) 2,216 7.7 26.0°
Maximum altitude 15:56:16 41° 249° (WSW) 1,109 7.8 25.0°
Drops below altitude 10° 16:01:25 10° 180° (S) 2,407 8.0 24.0°
Sets 16:04:05 0° 173° (S) 3,385 8.5 23.5°
